Tracking 20623 objects as of 4-Apr-2020
HD Live streaming from Space Station
objects crossing your sky now

DELTA 1 DEB

Track DELTA 1 DEB now!
10-day predictions


NORAD ID: 10305
Int'l Code: 1977-065DB
Perigee: 598.2 km
Apogee: 887.5 km
Inclination: 29.1 °
Period: 99.5 minutes
Semi major axis: 7113 km
RCS: 0.0383 m2 (small)
Launch date: July 14, 1977
Source: United States (US)
Launch site: AIR FORCE EASTERN TEST RANGE (AFETR)

Note: This is SATELLITE DEBRIS
aabbcc
Your satellite tracking list
Your tracking list is empty




NASA's NSSDC Master Catalog

Two Line Element Set (TLE):
1 10305U 77065DB  20095.17783250  .00004158  00000-0  84286-3 0  9992
2 10305  29.0531  84.6104 0203304 298.3547  59.6674 14.46916619114420
Source of the keplerian elements: AFSPC